Location: Bow
(51.5261°N, 0.0167°W)
Time: 18:32:46
(UTC+00:00)

Cosmos 1707 - Visible Passes

Search period start: 15 January 2021 00:00
Search period end: 25 January 2021 00:00
Orbit: 514 x 531 km, 82.5° (Epoch: 15 January)

Date Brightness Start Highest point End Pass type
(mag) Time Alt. Az. Time Alt. Az. Time Alt. Az.
15 Jan 3.6 17:21:06 10° SSW 17:24:51 52° WNW 17:28:39 10° N visible
16 Jan 3.3 17:08:08 10° SSW 17:11:56 59° WNW 17:15:45 10° N visible
17 Jan 3.1 16:55:11 10° SSW 16:59:01 67° WNW 17:02:51 10° N visible
19 Jan 5.9 18:08:53 10° WNW 18:09:43 11° WNW 18:10:31 10° NW visible
20 Jan 5.7 17:55:17 10° W 17:56:43 12° WNW 17:58:09 10° NW visible
21 Jan 5.6 17:41:54 10° W 17:43:44 13° WNW 17:45:35 10° NNW visible
22 Jan 5.5 17:28:36 10° W 17:30:46 14° WNW 17:32:55 10° NNW visible
23 Jan 5.4 17:15:22 10° WSW 17:17:47 16° WNW 17:20:12 10° NNW visible
